Starlink 4208

operational
NORAD ID: 52844 Int'l Des: 2022-062 Owner: SPXS Country: US Constellation: starlink
LEOCIRCULAR

Über Starlink 4208

Beschreibung wird geladen...

Live-Position

3D-Globus wird geladen...

Nächste Überflüge

Höhenverlauf

Altitude vs Time

uPlot chart will show altitude changes over time

Zweizeiliger Elementsatz

1 52844U 22062Q 25348.88186383 -.00005354 00000-0 -31854-3 0 9995
2 52844 53.2176 54.8380 0000724 101.2770 258.8304 15.08840715192986
Epoch: 14. Dez. 2025 • Age: 24 hours

Aktueller Status

Höhe 556.4 km
Geschwindigkeit 7.58 km/s
Subsatellitenpunkt -47.08°S, 38.23°W
Startdatum 17. Juni 2022
Alter 3.4 years
Typ internet

Technische Details

Klassifizierung Payload
Masse 297.00 kg
Trockenmasse 275.00 kg
Gesamtmasse 297.00 kg
Länge 0.20 m
Durchmesser 2.80 m
Spannweite 9.00 m
Form Box + pan
Hersteller SPXS
Bus-Typ Starlink
Phasenstatus In Orbit
Besitzer/Staat SPXS/US

Große Konstellationen

Loading constellations...